Regional Weather Roundup
Issued by NWS

Home | Current Version | Previous Version | Text Only | Print | Product List | Glossary Off
Versions: 1 2 3 4 5 6 7 8 9 10 11 12 13 14 15 16 17 18 19 20 21 22 23 24 25 26 27 28 29 30 31 32 33 34 35 36 37 38 39 40 41 42 43 44 45 46 47 48 49 50

607
ASUS43 KDMX 200306
RWRIA

WEATHER ROUNDUP FOR IOWA
NATIONAL WEATHER SERVICE DES MOINES IA
1000 PM CDT THU APR 19 2018

NOTE: "FAIR" INDICATES FEW OR NO CLOUDS BELOW 12,000 FEET WITH NO
SIGNIFICANT WEATHER AND/OR OBSTRUCTIONS TO VISIBILITY.

* - THESE STATIONS ARE NOT NWS STATIONS...THUS NOT UNDER NWS
QUALITY CONTROL.  THEY ALSO DO NOT REPORT WEATHER SUCH
AS PRECIPITATION OR FOG.

IAZ001>003-012>014-020>022-031>034-043>046-200400-
   NORTHWEST IOWA

CITY           SKY/WX    TMP DP  RH WIND       PRES   REMARKS
CARROLL *      CLEAR     37  32  81 NE6       30.43S WCI  33
CHEROKEE *     CLEAR     32  23  69 N3        30.44R
DENISON *      CLEAR     37  28  70 E10       30.43R WCI  30
LE MARS *      CLEAR     34  23  64 NE9       30.43S WCI  26
ORANGE CITY *  CLEAR     34  28  80 E6        30.43S WCI  29
SHELDON *      CLEAR     32  27  80 E7        30.43R WCI  26
SIOUX CITY     CLEAR     37  26  64 E7        30.42R WCI  32
SPENCER        CLEAR     30  23  75 CALM      30.45R
STORM LAKE *   CLEAR     32  23  69 E10       30.43S WCI  24
$$

IAZ055>058-069>071-079>083-090>094-200400-
   SOUTHWEST IOWA

CITY           SKY/WX    TMP DP  RH WIND       PRES   REMARKS
ATLANTIC *     CLEAR     41  28  60 NE6       30.41R
AUDUBON *      CLEAR     36  28  75 CALM      30.43R
CLARINDA *     MOCLDY    46  27  46 E5        30.42R
COUNCIL BLFS * CLOUDY    45  28  53 E10       30.39R
CRESTON *      CLEAR     39  27  60 E8        30.42R WCI  34
HARLAN  *      PTCLDY    41  30  65 E8        30.44R
LAMONI         CLEAR     44  26  49 NE5       30.40R
RED OAK *        N/A     43  27  52 E8        30.40R
SHENANDOAH *   CLEAR     43  28  56 NE5       30.39S
$$

IAZ047>049-059>061-072>074-084-200400-
   CENTRAL IOWA

CITY           SKY/WX    TMP DP  RH WIND       PRES   REMARKS
AMES           CLEAR     38  27  64 NE6       30.45R WCI  33
ANKENY *       CLEAR     37  28  70 NE7       30.45S WCI  32
BOONE *        CLEAR     36  30  80 NE9       30.44R WCI  29
CHARITON *     MOCLDY    41  27  56 NE7       30.42S
DES MOINES     CLEAR     44  26  49 NE9       30.43S
GRINNELL*      CLEAR     37  26  64 NE9       30.45S WCI  31
KNOXVILLE *    PTCLDY    43  25  49 NE7       30.42S
MARSHALLTOWN   CLEAR     34  27  75 N9        30.45R WCI  27
NEWTON *       CLEAR     39  27  60 NE8       30.44S WCI  34
PELLA *        CLEAR     40  26  59 NE3       30.45S
PERRY *        FAIR      39  25  58 NE8       30.44R WCI  33
$$

IAZ004>006-015-016-023>025-035-036-200400-
   NORTH CENTRAL IOWA

CITY           SKY/WX    TMP DP  RH WIND       PRES   REMARKS
ALGONA *       CLEAR     32  21  64 CALM      30.46R
CLARION *      CLEAR     30  25  80 CALM      30.46S
ESTHERVILLE    CLEAR     28  20  71 CALM      30.45R
FORT DODGE *   CLEAR     34  26  72 NE5       30.46R WCI  30
MASON CITY     CLEAR     28  21  75 CALM      30.47R
FOREST CITY *  FAIR      28  27  93 CALM      30.45S
WEBSTER CITY * CLEAR     34  28  80 NE5       30.44S WCI  30
IOWA FALLS *   FAIR      36  28  73 CALM      30.47S
$$

IAZ007>011-017>019-026>030-037>042-050>054-066-200400-
   NORTHEAST IOWA

CITY           SKY/WX    TMP DP  RH WIND       PRES   REMARKS
CEDAR RAPIDS   FAIR      39  25  57 N8        30.44S WCI  33
CHARLES CITY * FAIR      32  25  74 N3        30.46S
CLINTON *      FAIR      37  27  67 N7        30.46R WCI  32
DECORAH *      FAIR      37  21  52 CALM      30.44S
DUBUQUE        FAIR      35  25  66 CALM      30.45R
MONTICELLO *   FAIR      34  28  80 CALM      30.46R
OELWEIN *      FAIR      36  28  75 N3        30.45F
WATERLOO       FAIR      32  24  72 CALM      30.46S
$$

IAZ064-065-067-068-078-200400-
   EAST CENTRAL IOWA

CITY           SKY/WX    TMP DP  RH WIND       PRES   REMARKS
DAVENPORT      FAIR      40  26  57 NE5       30.47R
IOWA CITY      FAIR      42  24  49 NE6       30.46S
MT. PLEASANT * CLEAR     36  25  64 NE7       30.44S WCI  30
MUSCATINE *    FAIR      41  25  52 CALM      30.46S
QUAD CITIES    FAIR      37  27  67 CALM      30.45R
$$

IAZ062-063-075>077-085>089-095>099-200400-
   SOUTHEAST IOWA

CITY           SKY/WX    TMP DP  RH WIND       PRES   REMARKS
BURLINGTON     CLEAR     44  25  47 NE7       30.44R
FAIRFIELD *    CLEAR     41  25  52 NE7       30.43S
FORT MADISON * CLEAR     45  25  45 NE3       30.44S
KEOKUK *       CLEAR     45  23  42 E5        30.43S
OSKALOOSA *    FAIR      38  26  60 NE9       30.44S WCI  32
CENTERVILLE *    N/A     43  25  49 CALM      30.43S
OTTUMWA        CLEAR     43  24  47 NE6       30.43S
WASHINGTON *   PTCLDY    39  27  60 NE8       30.45F WCI  34
$$

ABBREVIATIONS USED IN REMARKS
   TC - TEMPERATURES IN CELSIUS
  WCI - WIND CHILL INDEX
   HX - HEAT INDEX
  VSB - VISIBILITY
$$





USA.gov is the U.S. government's official web portal to all federal, state and local government web resources and services.